Torna al catalogo

STARLINK-31852

AttivoComunicazioniVLEO
NORAD 59841·PAYLOAD·🇺🇸 United States

Lanciato May 23, 2024 da Cape Canaveral Space Force Station

Loading…

Prossimi Passaggi (prossime 24 ore)

TLE

AggiornatoSource: CelesTrak SupGP

Epoca: Sep 14, 2026, 22:17 UTC

1 59841C 24097G   26257.92895833  .00024464  00000+0  88616-3 0  2576
2 59841  43.0011 277.9108 0001413 265.6819 242.6890 15.27564341    18

Traccia STARLINK-31852 in tempo reale con AllMySat

Download on the App Store